Middlesboro, KY

2:26 AM CDT on October 23, 2017 (GMT -0500)
Middlesboro

Weather History for K1A6 - March, 2013

Change the Weather History Date:

Sunday, March 31, 2013

  Actual Average (KLOZ) Record (KLOZ)
Temperature  
Mean Temperature 50 °F -  
Max Temperature 59 °F 62 °F 84 °F (1963)
Min Temperature 41 °F 39 °F 18 °F (1969)
Degree Days  
Heating Degree Days 15    
Moisture  
Dew Point 49 °F    
Average Humidity 91    
Maximum Humidity 100    
Minimum Humidity 73    
Precipitation  
Precipitation 0.47 in - - ()
Sea Level Pressure  
Sea Level Pressure 29.89 in    
Wind  
Wind Speed 2 mph (West)    
Max Wind Speed 10 mph    
Max Gust Speed -    
Visibility 7 miles    
Events Fog , Rain    
Averages and records for this station are not official NWS values.
T = Trace of Precipitation, MM = Missing Value Source: NWS Daily Summary

Daily Weather History Graph

Daily Weather History Graph

Search for Another Location

Airport or City:

Trip Planner

Search our weather history database for the weather conditions in past years. The results will help you decide how hot, cold, wet, or windy it might be!

Date:

Astronomy

Mar. 31, 2013 Rise Set
Actual Time 6:22 AM CDT 6:56 PM CDT
Civil Twilight 5:56 AM CDT 7:22 PM CDT
Nautical Twilight 5:25 AM CDT 7:53 PM CDT
Astronomical Twilight 4:54 AM CDT 8:24 PM CDT
Moon 11:57 PM CDT (3/31) 9:15 AM CDT (3/31)
Length of Visible Light 13h 26m
Length of Day
12h 34m
Waning Gibbous, 77% of the Moon is Illuminated
Mar 31
Waning Gibbous
Apr 2
Last Quarter
Apr 10
New
Apr 18
First Quarter
Apr 25
Full

Hourly Weather History & Observations

Time (CDT) Temp. Dew Point Humidity Pressure Visibility Wind Dir Wind Speed Gust Speed Precip Events Conditions
12:15 AM 47.3 °F 46.8 °F 98% 29.99 in 3.0 mi Calm Calm - 0.03 in Rain Rain
12:35 AM 47.1 °F 46.8 °F 99% 29.98 in 4.0 mi NE 3.5 mph - 0.07 in Rain Rain
12:55 AM 47.3 °F 47.3 °F 100% 29.97 in 4.0 mi Calm Calm - 0.10 in Rain Rain
1:15 AM 47.3 °F 47.3 °F 100% 29.96 in 3.0 mi Calm Calm - 0.03 in Rain Rain
1:35 AM 47.3 °F 47.3 °F 100% 29.95 in 3.0 mi Calm Calm - 0.06 in Rain Light Rain
1:55 AM 47.5 °F 47.3 °F 99% 29.94 in 3.0 mi Calm Calm - 0.09 in Rain Rain
2:15 AM 47.7 °F 47.5 °F 99% 29.94 in 4.0 mi Calm Calm - 0.01 in Rain Light Rain
2:35 AM 47.5 °F 47.3 °F 99% 29.93 in 3.0 mi Calm Calm - 0.03 in Rain Light Rain
2:55 AM 47.5 °F 47.3 °F 99% 29.92 in 3.0 mi Calm Calm - 0.05 in Rain Rain
3:15 AM 47.7 °F 47.5 °F 99% 29.92 in 3.0 mi Calm Calm - 0.02 in Rain Light Rain
3:35 AM 47.7 °F 47.5 °F 99% 29.90 in 3.0 mi Calm Calm - 0.04 in Rain Rain
3:55 AM 47.7 °F 47.5 °F 99% 29.90 in 3.0 mi Calm Calm - 0.06 in Rain Light Rain
4:15 AM 47.7 °F 47.5 °F 99% 29.88 in 3.0 mi Calm Calm - 0.02 in Rain Rain
4:35 AM 47.7 °F 47.7 °F 100% 29.88 in 2.0 mi Calm Calm - 0.04 in Rain Light Rain
4:55 AM 47.7 °F 47.7 °F 100% 29.87 in 2.5 mi Calm Calm - 0.05 in Rain Light Rain
5:15 AM 47.7 °F 47.7 °F 100% 29.88 in 2.0 mi Calm Calm - 0.02 in Rain Heavy Rain
5:35 AM 47.8 °F 47.8 °F 100% 29.87 in 3.0 mi Calm Calm - 0.02 in   Drizzle
5:55 AM 48.7 °F 48.2 °F 98% 29.87 in 7.0 mi South 3.5 mph - 0.02 in   Light Drizzle
6:15 AM 49.6 °F 48.2 °F 95% 29.87 in 7.0 mi SSE 5.8 mph - N/A Rain Heavy Rain
6:35 AM 49.5 °F 48.2 °F 95% 29.88 in 10.0 mi South 8.1 mph - N/A   Drizzle
6:55 AM 49.6 °F 48.2 °F 95% 29.88 in 10.0 mi SSE 3.5 mph - N/A   Overcast
7:15 AM 50.0 °F 48.6 °F 95% 29.88 in 10.0 mi SSW 3.5 mph - N/A   Overcast
7:35 AM 50.0 °F 48.6 °F 95% 29.88 in 10.0 mi Calm Calm - N/A Rain Rain
7:55 AM 50.4 °F 48.9 °F 95% 29.88 in 10.0 mi Calm Calm - N/A   Overcast
8:15 AM 50.9 °F 49.1 °F 94% 29.89 in 10.0 mi SSW 3.5 mph - N/A Rain Rain
8:35 AM 50.5 °F 49.3 °F 95% 29.89 in 5.0 mi Calm Calm - 0.01 in Rain Heavy Rain
8:55 AM 50.9 °F 49.5 °F 95% 29.90 in 10.0 mi Calm Calm - 0.02 in   Heavy Drizzle
9:15 AM 50.2 °F 49.8 °F 99% 29.90 in 5.0 mi Calm Calm - 0.02 in Rain Rain
9:35 AM 50.9 °F 50.7 °F 99% 29.90 in 7.0 mi Calm Calm - 0.03 in   Light Drizzle
9:55 AM 52.3 °F 50.9 °F 95% 29.89 in 10.0 mi Calm Calm - 0.03 in   Overcast
10:15 AM 53.8 °F 50.9 °F 90% 29.89 in 10.0 mi Calm Calm - N/A   Overcast
10:35 AM 55.4 °F 49.3 °F 80% 29.89 in 10.0 mi West 6.9 mph - N/A   Overcast
10:55 AM 56.5 °F 49.3 °F 77% 29.88 in 10.0 mi Calm Calm - N/A   Overcast
11:15 AM 57.4 °F 49.6 °F 75% 29.89 in 10.0 mi West 4.6 mph - N/A   Overcast
11:35 AM 57.4 °F 48.9 °F 73% 29.89 in 10.0 mi West 9.2 mph - N/A   Overcast
11:55 AM 57.2 °F 49.5 °F 75% 29.89 in 10.0 mi WSW 5.8 mph - N/A Rain Light Rain
12:15 PM 57.6 °F 50.0 °F 76% 29.90 in 10.0 mi West 8.1 mph - N/A   Overcast
12:35 PM 57.2 °F 50.4 °F 78% 29.89 in 10.0 mi WNW 9.2 mph - N/A   Overcast
12:55 PM 57.9 °F 50.2 °F 75% 29.90 in 10.0 mi WNW 5.8 mph - N/A   Overcast
1:15 PM 58.5 °F 49.8 °F 73% 29.90 in 10.0 mi West 10.4 mph - N/A   Overcast
1:35 PM 58.3 °F 49.6 °F 73% 29.90 in 10.0 mi WNW 8.1 mph - N/A   Overcast
1:55 PM 56.8 °F 50.0 °F 78% 29.88 in 10.0 mi NNW 5.8 mph - N/A   Overcast
2:15 PM 56.5 °F 49.8 °F 78% 29.89 in 10.0 mi NNW 5.8 mph - N/A   Overcast
2:35 PM 54.5 °F 49.3 °F 83% 29.90 in 10.0 mi WNW 6.9 mph - N/A Rain Light Rain
2:55 PM 53.6 °F 50.4 °F 89% 29.89 in 5.0 mi WSW 5.8 mph - 0.03 in Rain Rain
3:15 PM 54.0 °F 50.7 °F 89% 29.88 in 7.0 mi Calm Calm - 0.02 in Rain Light Rain
3:35 PM 55.0 °F 50.7 °F 85% 29.87 in 10.0 mi Calm Calm - 0.02 in   Overcast
3:55 PM 54.5 °F 50.5 °F 86% 29.87 in 10.0 mi ENE 3.5 mph - 0.02 in   Overcast
4:15 PM 54.7 °F 50.9 °F 87% 29.86 in 10.0 mi ESE 5.8 mph - N/A   Overcast
4:35 PM 55.2 °F 50.5 °F 84% 29.86 in 10.0 mi Calm Calm - N/A   Overcast
4:55 PM 55.8 °F 50.2 °F 82% 29.85 in 10.0 mi Calm Calm - N/A   Overcast
5:15 PM 55.6 °F 50.0 °F 81% 29.85 in 10.0 mi Calm Calm - N/A Rain Light Rain
5:35 PM 55.4 °F 50.7 °F 84% 29.86 in 10.0 mi Calm Calm - N/A   Drizzle
5:55 PM 54.9 °F 50.5 °F 85% 29.86 in 10.0 mi Calm Calm - N/A   Drizzle
6:15 PM 55.0 °F 49.1 °F 80% 29.87 in 10.0 mi WSW 3.5 mph - N/A   Overcast
6:35 PM 54.3 °F 49.5 °F 84% 29.87 in 10.0 mi West 3.5 mph - N/A Rain Light Rain
6:55 PM 53.8 °F 49.5 °F 85% 29.86 in 10.0 mi Calm Calm - N/A Rain Light Rain
7:15 PM 53.1 °F 50.2 °F 90% 29.87 in 10.0 mi WNW 4.6 mph - N/A Rain Rain
7:35 PM 52.3 °F 50.9 °F 95% 29.87 in 10.0 mi Calm Calm - N/A Rain Rain
8:15 PM 51.1 °F 50.4 °F 97% 29.88 in 10.0 mi Calm Calm - N/A   Overcast
8:35 PM 50.9 °F 50.2 °F 97% 29.89 in 10.0 mi Calm Calm - N/A   Mostly Cloudy
9:15 PM 48.2 °F 47.8 °F 99% 29.90 in 7.0 mi NW 3.5 mph - N/A   Clear
9:35 PM 47.1 °F 46.6 °F 98% 29.91 in 5.0 mi WNW 3.5 mph - N/A   Scattered Clouds
9:55 PM 46.6 °F 45.9 °F 97% 29.91 in 10.0 mi Calm Calm - N/A   Scattered Clouds
10:15 PM 44.4 °F 44.4 °F 100% 29.92 in 4.0 mi Calm Calm - N/A   Scattered Clouds
10:35 PM 44.1 °F 44.1 °F 100% 29.92 in 2.5 mi Calm Calm - N/A   Clear
10:55 PM 43.7 °F 43.7 °F 100% 29.91 in 0.5 mi Calm Calm - N/A Fog Fog
11:15 PM 42.3 °F 42.3 °F 100% 29.91 in 0.5 mi Calm Calm - N/A Fog Fog
11:35 PM 41.5 °F 41.5 °F 100% 29.92 in 0.5 mi Calm Calm - N/A Fog Fog